Weather History for Curtin, WE

Change the Weather History Date:

Saturday, January 11, 2014

  Actual Average Record
Temperature  
Mean Temperature 90 °F -  
Max Temperature 102 °F - - ()
Min Temperature 79 °F - - ()
Cooling Degree Days 26    
Growing Degree Days 40 (Base 50)    
Moisture  
Dew Point 74 °F    
Average Humidity 63    
Maximum Humidity 89    
Minimum Humidity 25    
Precipitation  
Precipitation 0.00 in - - ()
Sea Level Pressure  
Sea Level Pressure 29.75 in    
Wind  
Wind Speed 7 mph ()    
Max Wind Speed 14 mph    
Max Gust Speed 25 mph    
T = Trace of Precipitation, MM = Missing Value Source: Averaged Metar Reports

Daily Weather History Graph

Daily Weather History Graph

Search for Another Location

Airport:

Trip Planner

Search our weather history database for the weather conditions in past years. The results will help you decide how hot, cold, wet, or windy it might be!

Date:

Astronomy

Jan. 11, 2014 Rise Set
Actual Time 5:19 AM AWST 6:25 PM AWST
Civil Twilight 4:55 AM AWST 6:49 PM AWST
Nautical Twilight 4:27 AM AWST 7:17 PM AWST
Astronomical Twilight 3:58 AM AWST 7:46 PM AWST
Moon 2:26 PM AWST (1/11) 1:14 AM AWST (1/11)
Length of Visible Light 13h 53m
Length of Day
13h 06m
Waxing Gibbous, 79% of the Moon is Illuminated
Jan 11
Waxing Gibbous
Jan 16
Full
Jan 24
Last Quarter
Jan 31
New
Feb 7
First Quarter

Hourly Weather History & Observations

Time (AWST) Temp. Heat Index Dew Point Humidity Pressure Visibility Wind Dir Wind Speed Gust Speed Precip Events Conditions
12:00 AM 83 °F - 75 °F 71% 29.73 in - West 6.9 mph - -  
12:00 AM 82.4 °F 89.5 °F 75.2 °F 79% 29.74 in - West 6.9 mph - N/A   Unknown
1:00 AM 80.6 °F 87.1 °F 77.0 °F 89% 29.74 in - West 8.1 mph - N/A   Unknown
2:00 AM 80.6 °F 87.1 °F 77.0 °F 89% 29.74 in - West 5.8 mph - N/A   Unknown
2:27 AM 80.6 °F 87.1 °F 77.0 °F 89% 29.74 in - WNW 4.6 mph - N/A   Mostly Cloudy
3:00 AM 80 °F - 77 °F 87% 29.75 in - NW 4.6 mph - -   Overcast
3:00 AM 80.6 °F 87.1 °F 77.0 °F 89% 29.74 in - NW 4.6 mph - N/A   Overcast
4:00 AM 80.6 °F 87.1 °F 77.0 °F 89% 29.77 in - North 4.6 mph - N/A   Overcast
4:27 AM 80.6 °F 87.1 °F 77.0 °F 89% 29.80 in - WNW 4.6 mph - N/A   Overcast
5:00 AM 80.6 °F 87.1 °F 77.0 °F 89% 29.80 in - NW 4.6 mph - N/A   Mostly Cloudy
6:00 AM 81 °F - 77 °F 85% 29.81 in - NW 4.6 mph - -  
6:00 AM 80.6 °F 87.1 °F 77.0 °F 89% 29.80 in - NW 4.6 mph - N/A   Mostly Cloudy
7:00 AM 84.2 °F 94.1 °F 77.0 °F 79% 29.83 in - West 6.9 mph - N/A   Mostly Cloudy
8:00 AM 86.0 °F 96.9 °F 77.0 °F 74% 29.83 in - West 9.2 mph - N/A   Mostly Cloudy
9:00 AM 89 °F - 75 °F 55% 29.83 in - SSW 8.1 mph - -  
9:00 AM 87.8 °F 97.6 °F 75.2 °F 66% 29.83 in - SSW 8.1 mph - N/A   Scattered Clouds
10:00 AM 91.4 °F 102.5 °F 75.2 °F 59% 29.83 in - WNW 6.9 mph - N/A   Unknown
11:00 AM 95.0 °F 107.4 °F 75.2 °F 53% 29.80 in - West 6.9 mph - N/A   Unknown
12:00 PM 98 °F - 74 °F 37% 29.76 in - West 9.2 mph - -  
12:00 PM 98.6 °F 109.2 °F 73.4 °F 44% 29.77 in - West 9.2 mph - N/A   Unknown
1:00 PM 98.6 °F 107.7 °F 71.6 °F 42% 29.74 in - WSW 6.9 mph - N/A   Unknown
2:00 PM 100.4 °F 109.3 °F 71.6 °F 39% 29.71 in - SW 9.2 mph - N/A   Unknown
3:00 PM 101 °F - 68 °F 25% 29.68 in - West 10.4 mph - -  
3:00 PM 102.2 °F 108.4 °F 68.0 °F 33% 29.68 in - WSW 10.4 mph - N/A   Unknown
4:00 PM 100.4 °F 107.8 °F 69.8 °F 37% 29.65 in - West 10.4 mph - N/A   Unknown
5:00 PM 98.6 °F 107.7 °F 71.6 °F 42% 29.65 in - WNW 10.4 mph - N/A   Unknown
6:00 PM 95 °F - 76 °F 45% 29.69 in - WNW 11.5 mph - -  
6:00 PM 95.0 °F 107.4 °F 75.2 °F 53% 29.68 in - WNW 11.5 mph - N/A   Unknown
7:00 PM 91.4 °F 102.5 °F 75.2 °F 59% 29.71 in - WNW 9.2 mph - N/A   Unknown
7:44 PM 89.6 °F 99.8 °F 75.2 °F 62% 29.77 in - NE 12.7 mph 25.3 mph N/A   Unknown
8:00 PM 86.0 °F 86.6 °F 62.6 °F 45% 29.77 in - NE 13.8 mph 25.3 mph N/A   Unknown
9:00 PM 87 °F - 66 °F 40% 29.73 in - West 6.9 mph - -  
9:00 PM 86.0 °F 88.2 °F 66.2 °F 51% 29.74 in - WSW 6.9 mph - N/A   Unknown
10:00 PM 87.8 °F 92.6 °F 69.8 °F 55% 29.74 in - West 4.6 mph - N/A   Unknown
11:00 PM 84.2 °F 90.9 °F 73.4 °F 70% 29.74 in - North 5.8 mph - N/A   Unknown